Naples, FL

3:21 AM EDT on August 26, 2016 (GMT -0400)
Naples Municipal

Weather History for KAPF - January, 2014

Change the Weather History Date:

Saturday, January 11, 2014

  Actual Average Record
Temperature  
Mean Temperature 76 °F 64 °F  
Max Temperature 82 °F 75 °F 85 °F (1989)
Min Temperature 69 °F 54 °F 30 °F (1970)
Degree Days  
Heating Degree Days 0 4  
Month to date heating degree days 31 38  
Since 1 July heating degree days 39 116  
Cooling Degree Days 11 3  
Month to date cooling degree days 57 33  
Year to date cooling degree days 57 33  
Growing Degree Days 26 (Base 50)    
Moisture  
Dew Point 71 °F    
Average Humidity 85    
Maximum Humidity 100    
Minimum Humidity 69    
Precipitation  
Precipitation 0.00 in 0.06 in 1.18 in (1973)
Month to date precipitation 0.44 0.60  
Year to date precipitation 0.44 0.60  
Snow  
Snow 0.00 in - - ()
Month to date snowfall 0.0  
Since 1 July snowfall 0.0  
Snow Depth 0.00 in    
Sea Level Pressure  
Sea Level Pressure 30.05 in    
Wind  
Wind Speed 9 mph (South)    
Max Wind Speed 20 mph    
Max Gust Speed 26 mph    
Visibility 8 miles    
Events      
T = Trace of Precipitation, MM = Missing Value Source: NWS Daily Summary

Daily Weather History Graph

Daily Weather History Graph

Search for Another Location

Airport or City:

Trip Planner

Search our weather history database for the weather conditions in past years. The results will help you decide how hot, cold, wet, or windy it might be!

Date:

Astronomy

Jan. 11, 2014 Rise Set
Actual Time 7:16 AM EST 5:54 PM EST
Civil Twilight 6:51 AM EST 6:19 PM EST
Nautical Twilight 6:22 AM EST 6:47 PM EST
Astronomical Twilight 5:54 AM EST 7:15 PM EST
Moon 2:33 PM EST (1/11) 3:24 AM EST (1/11)
Length of Visible Light 11h 27m
Length of Day
10h 38m
Waxing Gibbous, 83% of the Moon is Illuminated
Jan 11
Waxing Gibbous
Jan 15
Full
Jan 24
Last Quarter
Jan 30
New
Feb 6
First Quarter

Hourly Weather History & Observations

Time (EST) Temp. Heat Index Dew Point Humidity Pressure Visibility Wind Dir Wind Speed Gust Speed Precip Events Conditions
12:53 AM 71.1 °F - 70.0 °F 96% 30.07 in 10.0 mi ESE 5.8 mph - N/A   Clear
1:53 AM 70.0 °F - 70.0 °F 100% 30.07 in 8.0 mi Calm Calm - N/A   Clear
2:16 AM 69.8 °F - 69.8 °F 100% 30.07 in 7.0 mi ESE 5.8 mph - N/A   Partly Cloudy
2:25 AM 69.8 °F - 69.8 °F 100% 30.06 in 6.0 mi ESE 4.6 mph - N/A   Mostly Cloudy
2:53 AM 70.0 °F - 70.0 °F 100% 30.06 in 7.0 mi ESE 5.8 mph - N/A   Mostly Cloudy
2:59 AM 69.8 °F - 69.8 °F 100% 30.06 in 8.0 mi ESE 4.6 mph - N/A   Scattered Clouds
3:40 AM 69.8 °F - 69.8 °F 100% 30.05 in 4.0 mi ESE 5.8 mph - N/A   Mostly Cloudy
3:53 AM 70.0 °F - 70.0 °F 100% 30.05 in 6.0 mi ESE 5.8 mph - N/A   Mostly Cloudy
4:53 AM 70.0 °F - 70.0 °F 100% 30.05 in 10.0 mi ESE 4.6 mph - N/A   Partly Cloudy
5:37 AM 69.8 °F - 69.8 °F 100% 30.06 in 10.0 mi ESE 4.6 mph - N/A   Mostly Cloudy
5:53 AM 70.0 °F - 70.0 °F 100% 30.05 in 10.0 mi ESE 4.6 mph - N/A   Mostly Cloudy
6:01 AM 69.8 °F - 69.8 °F 100% 30.06 in 10.0 mi SE 4.6 mph - N/A   Scattered Clouds
6:53 AM 69.1 °F - 69.1 °F 100% 30.06 in 9.0 mi ESE 4.6 mph - N/A   Partly Cloudy
7:53 AM 70.0 °F - 70.0 °F 100% 30.07 in 7.0 mi SSE 6.9 mph - N/A   Partly Cloudy
8:53 AM 73.0 °F - 72.0 °F 96% 30.10 in 10.0 mi SSE 8.1 mph - N/A   Clear
9:53 AM 77.0 °F - 73.9 °F 90% 30.11 in 10.0 mi SSE 10.4 mph - N/A   Scattered Clouds
10:53 AM 81.0 °F 85.8 °F 73.0 °F 77% 30.10 in 10.0 mi SSE 16.1 mph 19.6 mph N/A   Overcast
11:53 AM 80.1 °F 83.8 °F 72.0 °F 76% 30.09 in 10.0 mi South 13.8 mph 21.9 mph N/A   Mostly Cloudy
12:53 PM 81.0 °F 85.2 °F 72.0 °F 74% 30.04 in 10.0 mi SSW 17.3 mph 23.0 mph N/A   Scattered Clouds
1:53 PM 82.0 °F 86.3 °F 71.1 °F 69% 30.01 in 10.0 mi SSW 18.4 mph - N/A   Mostly Cloudy
2:53 PM 81.0 °F 85.2 °F 72.0 °F 74% 29.99 in 10.0 mi SSW 12.7 mph - N/A   Partly Cloudy
3:53 PM 79.0 °F - 71.1 °F 77% 30.00 in 10.0 mi SSW 11.5 mph - N/A   Clear
4:53 PM 77.0 °F - 71.1 °F 82% 30.01 in 9.0 mi South 12.7 mph - N/A   Clear
5:53 PM 73.9 °F - 71.1 °F 91% 30.00 in 8.0 mi SSW 10.4 mph - N/A   Clear
6:26 PM 73.4 °F - 71.6 °F 94% 30.01 in 9.0 mi SSW 9.2 mph - N/A   Mostly Cloudy
6:53 PM 73.9 °F - 72.0 °F 93% 30.02 in 8.0 mi SSW 8.1 mph - N/A   Mostly Cloudy
7:39 PM 73.4 °F - 71.6 °F 94% 30.04 in 7.0 mi SSW 11.5 mph - N/A   Overcast
7:53 PM 73.0 °F - 72.0 °F 96% 30.04 in 7.0 mi SW 9.2 mph - N/A   Overcast
8:00 PM 73.4 °F - 71.6 °F 94% 30.04 in 7.0 mi SSW 9.2 mph - N/A   Partly Cloudy
8:25 PM 73.4 °F - 71.6 °F 94% 30.05 in 6.0 mi SW 6.9 mph - N/A   Mostly Cloudy
8:53 PM 73.0 °F - 72.0 °F 96% 30.06 in 5.0 mi SW 10.4 mph - N/A   Scattered Clouds
9:12 PM 73.4 °F - 73.4 °F 100% 30.07 in 6.0 mi SW 9.2 mph - N/A   Mostly Cloudy
9:53 PM 73.0 °F - 72.0 °F 96% 30.06 in 5.0 mi SW 10.4 mph - N/A   Mostly Cloudy
10:22 PM 73.4 °F - 71.6 °F 94% 30.05 in 6.0 mi WSW 8.1 mph - N/A   Mostly Cloudy
10:29 PM 73.4 °F - 71.6 °F 94% 30.06 in 6.0 mi West 13.8 mph 18.4 mph N/A   Scattered Clouds
10:53 PM 71.1 °F - 69.1 °F 93% 30.05 in 9.0 mi West 9.2 mph - N/A   Partly Cloudy
11:53 PM 72.0 °F - 66.9 °F 84% 30.05 in 10.0 mi WSW 6.9 mph - N/A   Mostly Cloudy